Tracking 30986 objects as of 9-Jul-2025
HD Live streaming from Space Station
objects crossing your sky now

SITRO-AIS-9

Track SITRO-AIS-9 now!
10-day predictions
SITRO-AIS-9 is classified as:


NORAD ID: 57201
Int'l Code: 2023-091AM
Perigee: 492.5 km
Apogee: 504.6 km
Inclination: 97.6 °
Period: 94.4 minutes
Semi major axis: 6869 km
RCS: Unknown
Launch date: June 27, 2023
Source: (TBD)
Launch site: VOSTOCHNY COSMODROME (VOSTO)

Uplink (MHz):
Downlink (MHz): 401.260
Beacon (MHz):
Mode: 2k4 GMSK_USP
Call sign: SC2211
Status: Active

Your satellite tracking list
Your tracking list is empty




NASA's NSSDC Master Catalog

Two Line Element Set (TLE):
1 57201U 23091AM  25190.18283710  .00008456  00000-0  34351-3 0  9999
2 57201  97.5576 250.1446 0008855 199.5013 160.5887 15.24793458112267
Source of the keplerian elements: AFSPC